SPACEBEE-4 (43139 NORAD) Tracking and Keplerian Element Data

This shows tracking and keplerian element data for the satellite.

Feedback or suggestion? Click here.




ElementValue
Catalog43139
NameSPACEBEE-4
Epoch Orbit12329
Epoch Day91.73563657
Epoch Year2020
RAAN165.0899
Inclination97.4572
Eccentricity0.0007452
Argument of Perigee336.0138
Mean Anonmoly24.0752
Mean Motion15.26187205
Decay Rate3.165E-05
L11 43139U 18004AE 20091.73563657 .00003165 00000-0 12522-3 0 9997
L22 43139 97.4572 165.0899 0007452 336.0138 24.0752 15.26187205123290

Live tracking and technical data element details for SPACEBEE-4 (NORAD 43139). SPACEBEE-4 can be tracked NOW for your location showing map with azimuth and elevation plus other details from your city location.

Track the satellite on the map from your city or location and see movement details for azimuth, elevation, latitude, longitude, range, height, and movement on the map or in text.







IsCatalogInMostPopularTable: catalog: 43139, numindb: 325
Update: records affected: 1



GetName: 43139 SPACEBEE-4

Hit Count: updated at: Fri, 03 Apr 2020 06:42:57 GMT